HULIANWANG DIGUI 12J

Last updated on Sun Oct 19 2025 00:02:08 GMT+0000 (Coordinated Universal Time)

1 66003U 25231J 25291.38376450 -.00000113 00000+0 24002-4 0 9990 2 66003 50.0060 348.3683 0005529 279.1345 80.8934 14.06117933 338
UTC large
Height (km)
Speed (km/s)
/
Latitude / Longitude
Inclination (degrees)
Orbital Period (minutes)
Azimuth
Elevation
Range (km)
Doppler Factor

Next 0 passes for location: London (51.5072 / 0.1276)

Sorry there are no passes over London.